[[{"header":{"parameterUnit":"m.s-1","parameterCategory":2,"la1":30.2991,"la2":30.254,"lo1":-89.0895,"lo2":-89.0444,"dy":0.0017,"dx":0.0017,"nx":28,"ny":28,"refTime":"2024-04-30T09:00:00:Z","depth":"0","parameterNumber":2,"parameterNumberName":"U-component_of_CURRENTS"},"data":[0,0,0,0,0,0,0,0,0,0,0,0,0,0,0,0,0,0,0,0,0,0,0,0,0,0,0,0,0,0,0,0,0,0,0,0,0,0,0,0,0,0,0,0,0,0,0,0,0,0,0,0,0,0,0,0,0,0,-0.2094,-0.2094,0,-0.2057,-0.2057,-0.2056,-0.1951,-0.1948,-0.1946,-0.1944,-0.1855,-0.1855,-0.1854,0,0,0,0,0,0,0,0,0,0,0,0,0,-0.2171,-0.2169,-0.2094,-0.2094,-0.2094,-0.2057,-0.2057,-0.2056,-0.1951,-0.1948,-0.1946,-0.1943,-0.1855,-0.1855,-0.1854,0,0,0,0,0,0,0,0,0,0,0,0,0,-0.2135,-0.2169,-0.2095,-0.2037,-0.2031,-0.2058,-0.2057,-0.2056,-0.1952,-0.1948,-0.1945,-0.1942,-0.1855,-0.1855,-0.1854,-0.192,0,0,-0.1853,-0.1853,0,0,0,0,0,0,0,0,-0.2137,-0.2133,-0.2046,-0.2041,-0.2035,-0.2005,-0.2051,-0.2008,-0.1952,-0.1982,-0.1944,-0.194,-0.1903,-0.1899,-0.1899,-0.1915,-0.1912,-0.1853,-0.1853,-0.1853,-0.1852,0,0,0,0,0,0,0,-0.214,-0.2134,-0.2079,-0.2046,-0.2039,-0.2046,-0.2037,-0.2043,-0.1961,-0.1979,-0.1971,-0.1969,-0.1899,-0.19,-0.1896,-0.191,-0.1853,-0.1853,-0.1852,-0.1852,-0.1898,-0.1899,0,0,0,0,0,0,-0.2144,-0.2136,-0.208,-0.2078,-0.2079,-0.2047,-0.2037,-0.2018,-0.1961,-0.195,-0.1972,-0.1964,-0.1902,-0.1897,-0.1893,-0.1895,-0.1853,-0.1852,-0.1852,-0.1896,-0.1898,-0.1899,0,0,0,0,0,0,-0.2146,-0.2139,-0.2082,-0.2108,-0.2101,-0.2049,-0.203,-0.2019,-0.1997,-0.1957,-0.1943,-0.1958,-0.1899,-0.1893,-0.1891,-0.1893,-0.1852,-0.1852,-0.1894,-0.1897,-0.1899,-0.1945,0,0,0,0,0,0,-0.2148,-0.2139,-0.2143,-0.2107,-0.2099,-0.2085,-0.2033,-0.2021,-0.2003,-0.1992,-0.1942,-0.1931,-0.1896,-0.1892,-0.1891,-0.1891,-0.1851,-0.1893,-0.1895,-0.1898,-0.1942,-0.1949,-0.1955,0,0,0,0,0,-0.215,-0.2142,-0.2143,-0.2137,-0.21,-0.2086,-0.2083,-0.2035,-0.2005,-0.2002,-0.1974,-0.1931,-0.1907,-0.1894,-0.1892,-0.1892,-0.1891,-0.1895,-0.1898,-0.1939,-0.1947,-0.1954,0,0,0,0,0,0,-0.2156,-0.2131,-0.213,-0.211,-0.2104,-0.2067,-0.206,-0.2042,-0.2021,-0.2004,-0.1961,-0.195,-0.1945,-0.1928,-0.1914,-0.1916,-0.1889,-0.1892,-0.1921,-0.1929,-0.1935,-0.1928,-0.1851,0,0,0,0,0,-0.2172,-0.2161,-0.2147,-0.2131,-0.213,-0.2106,-0.2099,-0.2072,-0.2045,-0.203,-0.2003,-0.1978,-0.1967,-0.1952,-0.1943,-0.1957,-0.1956,-0.1954,-0.1961,-0.1966,-0.1961,-0.2035,-0.2048,-0.191,-0.191,-0.191,0,0,-0.2164,-0.2154,-0.2144,-0.2136,-0.2122,-0.2119,-0.209,-0.2072,-0.2063,-0.203,-0.2011,-0.2004,-0.1979,-0.1981,-0.1977,-0.1958,-0.1993,-0.197,-0.1975,-0.1967,-0.204,-0.2053,-0.2065,-0.1912,-0.1912,-0.1912,0,0,-0.2146,-0.2142,-0.2135,-0.2139,-0.2135,-0.2125,-0.2122,-0.2102,-0.2083,-0.209,-0.2057,-0.2063,-0.2042,-0.2029,-0.2018,-0.2065,-0.2031,-0.2051,-0.2069,-0.2142,-0.2154,-0.2164,-0.2129,-0.2137,-0.2048,-0.2048,-0.2048,0,-0.2137,-0.2128,-0.2132,-0.2136,-0.2128,-0.2126,-0.2116,-0.2117,-0.2099,-0.2103,-0.2081,-0.2095,-0.2066,-0.2082,-0.2075,-0.2077,-0.208,-0.2038,-0.2151,-0.2162,-0.2172,-0.2134,-0.2141,-0.2051,-0.205,-0.205,-0.205,0,-0.2124,-0.2123,-0.2114,-0.2117,-0.2122,-0.2108,-0.2115,-0.2121,-0.211,-0.212,-0.2146,-0.2144,-0.215,-0.2142,-0.2107,-0.2161,-0.2122,-0.2157,-0.213,-0.2189,-0.2144,-0.2151,-0.2054,-0.2054,-0.2053,-0.2052,0,0,-0.2052,-0.2095,-0.2089,-0.2089,-0.2106,-0.2092,-0.2107,-0.2117,-0.2137,-0.2154,-0.2187,-0.2178,-0.2204,-0.2194,-0.2186,-0.2226,-0.2267,-0.2207,-0.221,-0.2167,-0.2354,-0.2232,-0.2226,-0.2335,-0.2338,-0.234,-0.2275,0,-0.2025,-0.2031,-0.2061,-0.2046,-0.2037,-0.2062,-0.208,-0.2103,-0.2136,-0.2183,-0.2215,-0.2249,-0.2219,-0.2233,-0.2276,-0.2283,-0.2296,-0.2276,-0.2308,-0.2306,-0.219,-0.2236,-0.2108,-0.2034,-0.2281,-0.2282,-0.2283,0,-0.1984,-0.1994,-0.1987,-0.2007,-0.2007,-0.2006,-0.2035,-0.2052,-0.2141,-0.2185,-0.2258,-0.2303,-0.2345,-0.2337,-0.2383,-0.2374,-0.2353,-0.2355,-0.2355,-0.2232,-0.22,-0.2028,-0.2037,-0.2014,-0.2294,-0.2293,-0.2292,0,-0.1905,-0.1925,-0.1913,-0.1918,-0.1959,-0.1951,-0.196,-0.2039,-0.2079,-0.2192,-0.2263,-0.2348,-0.2381,-0.2427,-0.2401,-0.2411,-0.2443,-0.2471,-0.2331,-0.2318,-0.2207,-0.2181,-0.2197,-0.2512,-0.2512,-0.2512,-0.2512,0,-0.184,-0.182,-0.1871,-0.1858,-0.1837,-0.1884,-0.1902,-0.1946,-0.2063,-0.2135,-0.225,-0.2324,-0.2416,-0.2447,-0.2431,-0.2374,-0.247,-0.2323,-0.2315,-0.221,-0.2186,-0.2158,-0.2191,-0.2509,-0.251,-0.251,-0.2511,0,-0.173,-0.1778,-0.1754,-0.1792,-0.1794,-0.1763,-0.1831,-0.1881,-0.1997,-0.2102,-0.2145,-0.23,-0.233,-0.2373,-0.2413,-0.2378,-0.231,-0.231,-0.2115,-0.2085,-0.1935,-0.1975,-0.1983,-0.1929,-0.216,-0.2157,-0.2154,0,-0.1668,-0.1655,-0.1677,-0.1669,-0.1669,-0.1665,-0.1694,-0.181,-0.1892,-0.2073,-0.2126,-0.2205,-0.2233,-0.222,-0.2179,-0.2119,-0.2163,-0.1979,-0.1989,-0.1897,-0.1939,-0.1984,-0.1943,-0.1833,-0.1828,-0.1824,-0.1821,0,-0.1536,-0.1557,-0.1546,-0.1542,-0.1547,-0.1577,-0.1625,-0.1685,-0.1851,-0.1946,-0.2044,-0.2069,-0.2059,-0.1955,-0.1883,-0.1846,-0.1926,-0.1889,-0.1896,-0.1759,-0.1714,-0.1665,-0.1838,-0.1785,-0.1788,-0.1791,-0.1793,-0.1794,-0.1424,-0.1392,-0.1407,-0.1391,-0.1419,-0.147,-0.1463,-0.157,-0.1646,-0.1752,-0.1849,-0.184,-0.1809,-0.1678,-0.1632,-0.1513,-0.1623,-0.1489,-0.1556,-0.1617,-0.1546,-0.1572,-0.1463,-0.1464,-0.1466,-0.1467,-0.1468,0,-0.1298,-0.1289,-0.1265,-0.1264,-0.1274,-0.1332,-0.1417,-0.1421,-0.1454,-0.1538,-0.156,-0.1533,-0.1409,-0.1399,-0.1287,-0.122,-0.1219,-0.1216,-0.128,-0.1264,-0.1357,-0.1321,-0.1053,-0.1053,-0.1053,-0.1053,-0.1053,-0.1053,-0.1226,-0.118,-0.1184,-0.1134,-0.1138,-0.1122,-0.1148,-0.1159,-0.1198,-0.1162,-0.1164,-0.1207,-0.1204,-0.1296,-0.1189,-0.1122,-0.1138,-0.1081,-0.1153,-0.1243,-0.1275,-0.1306,-0.1279,-0.1007,-0.1007,-0.0981,-0.0982,-0.0982]},{"header":{"parameterUnit":"m.s-1","parameterCategory":2,"la1":30.2991,"la2":30.254,"lo1":-89.0895,"lo2":-89.0444,"dy":0.0017,"dx":0.0017,"nx":28,"ny":28,"refTime":"2024-04-30T09:00:00:Z","depth":"0","parameterNumber":3,"parameterNumberName":"V-component_of_CURRENTS"},"data":[0,0,0,0,0,0,0,0,0,0,0,0,0,0,0,0,0,0,0,0,0,0,0,0,0,0,0,0,0,0,0,0,0,0,0,0,0,0,0,0,0,0,0,0,0,0,0,0,0,0,0,0,0,0,0,0,0,0,-0.1057,-0.1058,0,-0.1125,-0.1125,-0.1126,-0.1063,-0.1061,-0.1059,-0.1057,-0.0925,-0.0924,-0.0922,0,0,0,0,0,0,0,0,0,0,0,0,0,-0.0868,-0.0872,-0.1057,-0.1058,-0.1059,-0.1125,-0.1125,-0.1126,-0.1064,-0.1061,-0.1058,-0.1056,-0.0926,-0.0924,-0.0922,0,0,0,0,0,0,0,0,0,0,0,0,0,-0.0941,-0.0873,-0.1057,-0.1038,-0.1038,-0.1124,-0.1125,-0.1126,-0.1064,-0.1061,-0.1058,-0.1054,-0.0926,-0.0924,-0.0922,-0.0976,0,0,-0.0916,-0.0915,0,0,0,0,0,0,0,0,-0.0937,-0.0948,-0.104,-0.104,-0.1039,-0.1085,-0.1011,-0.1067,-0.1065,-0.1051,-0.1057,-0.1053,-0.0965,-0.0959,-0.0978,-0.097,-0.0964,-0.0915,-0.0914,-0.0913,-0.0913,0,0,0,0,0,0,0,-0.0932,-0.0945,-0.1081,-0.1042,-0.1041,-0.1025,-0.1031,-0.1022,-0.102,-0.1052,-0.1048,-0.1062,-0.0962,-0.098,-0.0974,-0.0962,-0.0915,-0.0914,-0.0912,-0.0911,-0.0913,-0.0914,0,0,0,0,0,0,-0.0935,-0.0941,-0.1078,-0.1083,-0.0982,-0.1031,-0.1038,-0.1071,-0.1024,-0.1016,-0.1065,-0.1059,-0.0986,-0.0976,-0.0969,-0.0973,-0.0913,-0.0911,-0.091,-0.0912,-0.0913,-0.0915,0,0,0,0,0,0,-0.0931,-0.0948,-0.1076,-0.1014,-0.1029,-0.1039,-0.1075,-0.1074,-0.1081,-0.1037,-0.1023,-0.1071,-0.0983,-0.0971,-0.0956,-0.0969,-0.091,-0.0908,-0.091,-0.0912,-0.0914,-0.1018,0,0,0,0,0,0,-0.0926,-0.0947,-0.0975,-0.1015,-0.1033,-0.1131,-0.1079,-0.1078,-0.1097,-0.1089,-0.1039,-0.1024,-0.0979,-0.096,-0.0954,-0.0965,-0.0907,-0.0909,-0.0911,-0.0913,-0.1013,-0.1023,-0.1032,0,0,0,0,0,-0.0919,-0.0976,-0.0976,-0.0993,-0.1071,-0.1134,-0.1142,-0.1133,-0.1101,-0.1122,-0.1079,-0.1025,-0.097,-0.096,-0.0953,-0.0963,-0.0907,-0.091,-0.0913,-0.1008,-0.1021,-0.1032,0,0,0,0,0,0,-0.0917,-0.0977,-0.0977,-0.1051,-0.1089,-0.1124,-0.1155,-0.1144,-0.1136,-0.1117,-0.1054,-0.1039,-0.1026,-0.0991,-0.0981,-0.0971,-0.0926,-0.0928,-0.1001,-0.1012,-0.1022,-0.102,-0.0905,0,0,0,0,0,-0.0932,-0.0984,-0.1032,-0.1092,-0.1117,-0.1136,-0.116,-0.1156,-0.1156,-0.115,-0.1111,-0.1068,-0.1042,-0.1022,-0.0996,-0.1004,-0.0891,-0.1002,-0.1012,-0.102,-0.1015,-0.0849,-0.0841,-0.0925,-0.0925,-0.0924,0,0,-0.0946,-0.099,-0.1016,-0.1094,-0.1124,-0.1177,-0.1142,-0.119,-0.1215,-0.1137,-0.1149,-0.1105,-0.1053,-0.1053,-0.1043,-0.1018,-0.0939,-0.1024,-0.1032,-0.1021,-0.0851,-0.0842,-0.0834,-0.0927,-0.0926,-0.0926,0,0,-0.1008,-0.1044,-0.1106,-0.1144,-0.12,-0.1215,-0.1229,-0.1262,-0.1257,-0.1275,-0.1215,-0.1177,-0.1155,-0.1111,-0.1087,-0.1138,-0.0997,-0.1134,-0.1178,-0.1018,-0.1008,-0.0998,-0.0842,-0.0818,-0.1135,-0.1136,-0.1136,0,-0.1018,-0.1109,-0.1133,-0.1201,-0.1237,-0.1233,-0.1296,-0.1308,-0.1322,-0.132,-0.1283,-0.1213,-0.1177,-0.1145,-0.117,-0.1156,-0.1038,-0.1139,-0.1026,-0.1014,-0.1002,-0.0844,-0.0815,-0.1141,-0.114,-0.114,-0.1139,0,-0.1123,-0.119,-0.1235,-0.1312,-0.1351,-0.141,-0.1428,-0.1448,-0.1428,-0.1418,-0.1381,-0.1312,-0.1255,-0.125,-0.1232,-0.1153,-0.1087,-0.1056,-0.099,-0.0999,-0.0833,-0.0801,-0.1149,-0.1147,-0.1145,-0.1144,0,0,-0.1145,-0.1281,-0.1292,-0.1346,-0.1411,-0.1458,-0.1503,-0.1542,-0.1545,-0.1511,-0.1468,-0.1443,-0.137,-0.1337,-0.1279,-0.1164,-0.0998,-0.1091,-0.108,-0.0925,-0.0624,-0.0591,-0.0552,-0.0931,-0.0926,-0.0923,-0.0541,0,-0.1214,-0.1362,-0.1401,-0.1513,-0.1586,-0.1595,-0.1639,-0.1658,-0.1629,-0.158,-0.148,-0.1417,-0.1411,-0.1352,-0.1244,-0.1044,-0.0919,-0.1104,-0.0649,-0.0635,-0.0594,-0.0516,-0.0492,-0.0151,-0.0509,-0.0503,-0.0499,0,-0.129,-0.1383,-0.1518,-0.1624,-0.1653,-0.1704,-0.1745,-0.1777,-0.1716,-0.1676,-0.1578,-0.1471,-0.1316,-0.128,-0.0937,-0.1045,-0.0859,-0.0702,-0.0682,-0.059,-0.0542,-0.02,-0.0078,0.0065,-0.0449,-0.0453,-0.0457,0,-0.1302,-0.1451,-0.1563,-0.1603,-0.1722,-0.1765,-0.1804,-0.1804,-0.1804,-0.1691,-0.1608,-0.1438,-0.1259,-0.1033,-0.0757,-0.0812,-0.033,-0.035,-0.0143,-0.0137,0.0003,0.0011,0.0328,-0.0091,-0.0092,-0.0093,-0.0094,0,-0.1361,-0.1442,-0.1579,-0.1643,-0.1748,-0.18,-0.186,-0.1869,-0.181,-0.1748,-0.1631,-0.1464,-0.1177,-0.0888,-0.069,-0.0299,-0.026,-0.0115,-0.0024,-0.0038,-0.0037,0.0186,0.0213,-0.0079,-0.0082,-0.0085,-0.0087,0,-0.1363,-0.1459,-0.1585,-0.1723,-0.1767,-0.183,-0.1904,-0.1921,-0.1859,-0.1734,-0.1673,-0.14,-0.1018,-0.0743,-0.0299,-0.0162,0.0281,0.0279,0.0231,0.0306,0.0569,0.0587,0.1008,0.1118,0.0585,0.0589,0.0592,0,-0.1381,-0.146,-0.163,-0.1702,-0.177,-0.1869,-0.1931,-0.1944,-0.1917,-0.1673,-0.1568,-0.1188,-0.0882,-0.0256,0.0051,0.0443,0.0508,0.0666,0.0532,0.0624,0.0715,0.0706,0.0766,0.0699,0.0703,0.0706,0.0708,0,-0.1398,-0.1461,-0.1559,-0.1725,-0.1815,-0.1908,-0.196,-0.1936,-0.1867,-0.1707,-0.1365,-0.1086,-0.0503,-0.0022,0.0418,0.0615,0.0755,0.0733,0.0882,0.0876,0.0845,0.0979,0.0393,0.0733,0.073,0.0729,0.0727,0.0726,-0.1376,-0.1439,-0.1581,-0.1725,-0.1832,-0.1892,-0.1908,-0.1862,-0.1748,-0.1439,-0.12,-0.0741,-0.0148,0.0494,0.0726,0.1103,0.1029,0.1176,0.1214,0.1215,0.1244,0.0685,0.1067,0.1066,0.1066,0.1066,0.1065,0,-0.1325,-0.1429,-0.1578,-0.1726,-0.1819,-0.1888,-0.1892,-0.1826,-0.1608,-0.1289,-0.0932,-0.0242,0.0334,0.0805,0.1351,0.1561,0.1582,0.1639,0.1644,0.17,0.1293,0.1211,0.1575,0.1575,0.1575,0.1575,0.1575,0.1575,-0.1298,-0.1403,-0.1503,-0.1665,-0.1765,-0.1798,-0.1768,-0.1612,-0.1393,-0.0866,-0.0445,-0.0102,0.0541,0.1403,0.1906,0.195,0.2122,0.2091,0.2203,0.189,0.1848,0.1808,0.1742,0.2211,0.2211,0.2588,0.2591,0.2594]}],[{"header":{"parameterUnit":"m.s-1","parameterCategory":2,"la1":30.2991,"la2":30.254,"lo1":-89.0895,"lo2":-89.0444,"dy":0.0017,"dx":0.0017,"nx":28,"ny":28,"refTime":"2024-04-30T09:00:00:Z","depth":"2","parameterNumber":2,"parameterNumberName":"U-component_of_CURRENTS"},"data":[0,0,0,0,0,0,0,0,0,0,0,0,0,0,0,0,0,0,0,0,0,0,0,0,0,0,0,0,0,0,0,0,0,0,0,0,0,0,0,0,0,0,0,0,0,0,0,0,0,0,0,0,0,0,0,0,0,0,-0.1437,-0.1436,0,-0.1461,-0.1461,-0.1462,-0.1485,-0.1485,-0.1485,-0.1485,-0.1544,-0.1546,-0.1547,0,0,0,0,0,0,0,0,0,0,0,0,0,-0.1528,-0.1526,-0.1437,-0.1436,-0.1436,-0.1461,-0.1461,-0.1462,-0.1485,-0.1485,-0.1485,-0.1485,-0.1544,-0.1546,-0.1548,0,0,0,0,0,0,0,0,0,0,0,0,0,-0.1518,-0.1525,-0.1437,-0.1447,-0.1448,-0.146,-0.1461,-0.1462,-0.1485,-0.1485,-0.1485,-0.1485,-0.1543,-0.1545,-0.1548,-0.1568,0,0,-0.1556,-0.1557,0,0,0,0,0,0,0,0,-0.1518,-0.1515,-0.1446,-0.1446,-0.1447,-0.1466,-0.1515,-0.1498,-0.1486,-0.1476,-0.1485,-0.1485,-0.1518,-0.1523,-0.1534,-0.1571,-0.1573,-0.1556,-0.1558,-0.1559,-0.1559,0,0,0,0,0,0,0,-0.1519,-0.1515,-0.1451,-0.1446,-0.1446,-0.1491,-0.1489,-0.1513,-0.1503,-0.1477,-0.1478,-0.1473,-0.1519,-0.1532,-0.1536,-0.1574,-0.1556,-0.1558,-0.156,-0.1561,-0.1988,-0.1997,0,0,0,0,0,0,-0.15,-0.1515,-0.145,-0.1451,-0.1478,-0.1488,-0.1486,-0.1464,-0.1502,-0.1505,-0.1473,-0.1474,-0.1527,-0.1533,-0.1538,-0.175,-0.1559,-0.1561,-0.1563,-0.1978,-0.199,-0.2001,0,0,0,0,0,0,-0.1501,-0.1493,-0.1449,-0.1481,-0.1478,-0.1486,-0.1461,-0.1464,-0.1494,-0.1497,-0.1503,-0.1501,-0.1527,-0.1534,-0.1717,-0.1745,-0.1562,-0.1565,-0.1967,-0.1982,-0.1996,-0.2054,0,0,0,0,0,0,-0.1504,-0.1493,-0.1484,-0.1479,-0.1475,-0.1543,-0.1461,-0.1465,-0.1488,-0.149,-0.1523,-0.1527,-0.1528,-0.1715,-0.172,-0.1745,-0.1567,-0.1954,-0.1974,-0.1991,-0.204,-0.2069,-0.2094,0,0,0,0,0,-0.1507,-0.1483,-0.1483,-0.1476,-0.1457,-0.1548,-0.1556,-0.1561,-0.149,-0.1571,-0.1641,-0.1527,-0.1833,-0.1727,-0.1729,-0.1755,-0.1945,-0.1968,-0.199,-0.2028,-0.2063,-0.2094,0,0,0,0,0,0,-0.1555,-0.1482,-0.1483,-0.145,-0.1539,-0.1552,-0.1577,-0.1572,-0.1674,-0.1678,-0.1652,-0.1671,-0.1834,-0.1844,-0.1724,-0.1962,-0.1868,-0.1892,-0.1897,-0.193,-0.1957,-0.1913,-0.1569,0,0,0,0,0,-0.1551,-0.1489,-0.1523,-0.1517,-0.1545,-0.1563,-0.1587,-0.1627,-0.1696,-0.1734,-0.1783,-0.1853,-0.1924,-0.1968,-0.2063,-0.2178,-0.2089,-0.2216,-0.2243,-0.2264,-0.2254,-0.2235,-0.2252,-0.2073,-0.2073,-0.2073,0,0,-0.1584,-0.152,-0.1504,-0.1521,-0.1552,-0.1659,-0.1581,-0.1665,-0.1768,-0.1727,-0.1903,-0.195,-0.1993,-0.2155,-0.2222,-0.2158,-0.227,-0.2293,-0.2308,-0.2285,-0.2259,-0.2273,-0.2286,-0.2088,-0.2086,-0.2083,0,0,-0.1614,-0.1558,-0.1543,-0.1633,-0.17,-0.1733,-0.1765,-0.186,-0.1914,-0.2103,-0.2093,-0.2198,-0.2328,-0.237,-0.2384,-0.2627,-0.2423,-0.2654,-0.2716,-0.27,-0.2708,-0.2715,-0.2562,-0.2555,-0.2652,-0.2652,-0.2652,0,-0.168,-0.1634,-0.1589,-0.166,-0.1717,-0.1769,-0.1875,-0.1968,-0.2142,-0.219,-0.2203,-0.2384,-0.2417,-0.2511,-0.2617,-0.2661,-0.2581,-0.2547,-0.2713,-0.272,-0.2725,-0.2567,-0.2558,-0.2657,-0.2657,-0.2656,-0.2656,0,-0.1713,-0.1753,-0.1771,-0.1838,-0.1924,-0.2036,-0.2155,-0.2303,-0.2341,-0.2401,-0.2555,-0.2638,-0.2712,-0.2751,-0.2741,-0.2816,-0.2715,-0.2735,-0.2573,-0.2743,-0.257,-0.2559,-0.2665,-0.2663,-0.2662,-0.266,0,0,-0.1707,-0.1771,-0.1802,-0.1861,-0.2023,-0.2094,-0.2296,-0.2442,-0.2518,-0.2695,-0.2744,-0.2901,-0.2879,-0.2906,-0.2899,-0.2897,-0.2848,-0.2834,-0.2831,-0.2577,-0.2696,-0.2655,-0.2636,-0.2873,-0.2874,-0.2875,-0.2528,0,-0.1778,-0.1881,-0.1896,-0.2088,-0.2171,-0.23,-0.2467,-0.2628,-0.2719,-0.2831,-0.2862,-0.2935,-0.2948,-0.295,-0.2964,-0.2868,-0.2836,-0.2933,-0.2663,-0.2653,-0.251,-0.2632,-0.2465,-0.215,-0.2516,-0.2514,-0.2513,0,-0.1817,-0.1866,-0.2006,-0.2165,-0.221,-0.2353,-0.2539,-0.27,-0.2873,-0.2926,-0.2992,-0.2998,-0.3001,-0.3006,-0.2884,-0.2933,-0.2839,-0.2766,-0.2751,-0.2682,-0.2597,-0.207,-0.2114,-0.2492,-0.2494,-0.2495,-0.2497,0,-0.1756,-0.1948,-0.2011,-0.2093,-0.2301,-0.2398,-0.2529,-0.2737,-0.2826,-0.2955,-0.2956,-0.3002,-0.293,-0.2898,-0.2778,-0.2808,-0.2603,-0.2613,-0.2479,-0.2466,-0.2259,-0.2232,-0.2565,-0.2565,-0.2566,-0.2567,-0.2568,0,-0.1762,-0.1858,-0.2004,-0.2058,-0.2189,-0.2366,-0.2515,-0.266,-0.2822,-0.2834,-0.2959,-0.2908,-0.2907,-0.2803,-0.2741,-0.2543,-0.2561,-0.2479,-0.241,-0.2281,-0.2262,-0.2539,-0.2541,-0.2554,-0.2557,-0.2559,-0.2561,0,-0.1694,-0.179,-0.1889,-0.2082,-0.2148,-0.2251,-0.2477,-0.2576,-0.2736,-0.2733,-0.2744,-0.2768,-0.2615,-0.2604,-0.2459,-0.2419,-0.2301,-0.2249,-0.2042,-0.1963,-0.2151,-0.2162,-0.1999,-0.1995,-0.1992,-0.199,-0.1988,0,-0.1666,-0.1693,-0.1843,-0.1894,-0.1978,-0.2163,-0.2275,-0.2503,-0.2563,-0.2596,-0.2528,-0.2451,-0.2346,-0.2156,-0.2103,-0.1976,-0.2132,-0.1776,-0.1884,-0.2161,-0.211,-0.2126,-0.214,-0.1561,-0.1555,-0.1551,-0.1547,0,-0.1593,-0.1622,-0.168,-0.1773,-0.1866,-0.1981,-0.2138,-0.2148,-0.2312,-0.2299,-0.2185,-0.2121,-0.197,-0.1792,-0.1736,-0.1666,-0.1805,-0.1683,-0.2004,-0.1801,-0.1742,-0.1695,-0.1724,-0.1508,-0.1512,-0.1515,-0.1517,-0.1518,-0.1531,-0.1535,-0.1572,-0.1654,-0.1733,-0.175,-0.1775,-0.1866,-0.1869,-0.1783,-0.1809,-0.1671,-0.1665,-0.1484,-0.1396,-0.1359,-0.1489,-0.1449,-0.1464,-0.1483,-0.1567,-0.1516,-0.1241,-0.1243,-0.1245,-0.1247,-0.1248,0,-0.1429,-0.142,-0.1464,-0.1512,-0.1509,-0.1614,-0.1634,-0.1603,-0.148,-0.1445,-0.138,-0.1212,-0.1124,-0.1158,-0.1017,-0.1009,-0.1018,-0.099,-0.0998,-0.1036,-0.1071,-0.1138,-0.0694,-0.0692,-0.0691,-0.069,0,0,-0.1363,-0.1329,-0.1329,-0.1272,-0.1304,-0.124,-0.1198,-0.1119,-0.1094,-0.0936,-0.0901,-0.1006,-0.1076,-0.0867,-0.0834,-0.0731,-0.0875,-0.0695,-0.1133,-0.1175,-0.1207,-0.1322,-0.1467,0,0,0,0,0]},{"header":{"parameterUnit":"m.s-1","parameterCategory":2,"la1":30.2991,"la2":30.254,"lo1":-89.0895,"lo2":-89.0444,"dy":0.0017,"dx":0.0017,"nx":28,"ny":28,"refTime":"2024-04-30T09:00:00:Z","depth":"2","parameterNumber":3,"parameterNumberName":"V-component_of_CURRENTS"},"data":[0,0,0,0,0,0,0,0,0,0,0,0,0,0,0,0,0,0,0,0,0,0,0,0,0,0,0,0,0,0,0,0,0,0,0,0,0,0,0,0,0,0,0,0,0,0,0,0,0,0,0,0,0,0,0,0,0,0,0.0487,0.0488,0,0.0563,0.0564,0.0565,0.0565,0.0564,0.0563,0.0562,0.0567,0.0568,0.0569,0,0,0,0,0,0,0,0,0,0,0,0,0,0.0343,0.0346,0.0487,0.0488,0.0489,0.0563,0.0564,0.0565,0.0565,0.0564,0.0563,0.0562,0.0567,0.0568,0.0569,0,0,0,0,0,0,0,0,0,0,0,0,0,0.041,0.0347,0.0487,0.0499,0.0501,0.0563,0.0564,0.0565,0.0565,0.0564,0.0562,0.0561,0.0567,0.0568,0.0569,0.0605,0,0,0.0574,0.0574,0,0,0,0,0,0,0,0,0.0406,0.0415,0.0496,0.0498,0.0501,0.0554,0.0515,0.0575,0.0565,0.0539,0.0562,0.056,0.0558,0.056,0.0577,0.0605,0.0605,0.0574,0.0575,0.0575,0.0576,0,0,0,0,0,0,0,0.0401,0.0412,0.0516,0.0497,0.05,0.0501,0.0509,0.0527,0.0553,0.0541,0.0542,0.0553,0.0558,0.0575,0.0577,0.0605,0.0574,0.0575,0.0576,0.0577,0.0692,0.0694,0,0,0,0,0,0,0.0397,0.0408,0.0514,0.0518,0.0451,0.0505,0.0514,0.0537,0.0554,0.0557,0.0554,0.0553,0.0574,0.0575,0.0577,0.0566,0.0575,0.0577,0.0578,0.069,0.0692,0.0695,0,0,0,0,0,0,0.0394,0.0406,0.0511,0.0465,0.0478,0.0509,0.0535,0.054,0.0548,0.0565,0.0565,0.0557,0.0573,0.0575,0.0609,0.0568,0.0577,0.0579,0.0687,0.0691,0.0694,0.0578,0,0,0,0,0,0,0.0389,0.0405,0.0419,0.0465,0.0481,0.0547,0.0537,0.0542,0.0558,0.0556,0.0568,0.0567,0.0572,0.0607,0.061,0.057,0.058,0.0684,0.0689,0.0693,0.0579,0.0577,0.0575,0,0,0,0,0,0.0384,0.0412,0.0419,0.0432,0.05,0.0548,0.0556,0.0572,0.0559,0.0571,0.059,0.0566,0.0635,0.061,0.0614,0.0572,0.0682,0.0687,0.0692,0.058,0.0577,0.0575,0,0,0,0,0,0,0.0347,0.0417,0.0425,0.0469,0.0504,0.0548,0.056,0.0571,0.0596,0.0585,0.0595,0.0598,0.0612,0.0639,0.0611,0.0632,0.0655,0.0661,0.0569,0.0566,0.0564,0.0516,0.0581,0,0,0,0,0,0.0349,0.0393,0.0444,0.0477,0.0491,0.0523,0.0542,0.0553,0.0583,0.0591,0.0593,0.0615,0.0641,0.0639,0.0671,0.0679,0.0703,0.0665,0.0662,0.066,0.0632,0.0688,0.0686,0.0711,0.0711,0.0711,0,0,0.0338,0.0386,0.0406,0.0472,0.0494,0.0508,0.053,0.0556,0.0556,0.0588,0.0579,0.0608,0.0651,0.0659,0.0665,0.0665,0.0666,0.0666,0.0662,0.0636,0.0693,0.069,0.0687,0.0714,0.0714,0.0713,0,0,0.0338,0.0382,0.041,0.0436,0.0479,0.0501,0.0505,0.0538,0.0541,0.056,0.0578,0.0591,0.0625,0.0633,0.0648,0.0666,0.0664,0.0678,0.06,0.0655,0.0651,0.0648,0.0651,0.065,0.0662,0.0662,0.0662,0,0.0306,0.0355,0.0422,0.0441,0.0444,0.049,0.0485,0.051,0.0544,0.053,0.0547,0.0585,0.0608,0.0609,0.0603,0.0647,0.067,0.0586,0.0643,0.0642,0.064,0.0645,0.0645,0.0657,0.0657,0.0658,0.0658,0,0.0333,0.0343,0.0356,0.0393,0.0416,0.0421,0.0456,0.0454,0.0456,0.0467,0.0471,0.0522,0.0525,0.0546,0.0566,0.0562,0.0577,0.0637,0.0625,0.0629,0.0636,0.0637,0.065,0.0652,0.0653,0.0654,0,0,0.0284,0.0355,0.0346,0.0332,0.0378,0.0388,0.0387,0.0387,0.0352,0.0391,0.036,0.0398,0.0399,0.0421,0.0454,0.049,0.0487,0.0535,0.054,0.0493,0.0567,0.0594,0.0599,0.0554,0.0555,0.0555,0.0563,0,0.0251,0.0266,0.0318,0.0283,0.0272,0.0299,0.0281,0.0288,0.03,0.0286,0.0335,0.0334,0.0365,0.0352,0.0389,0.0484,0.049,0.0476,0.0609,0.0612,0.06,0.0602,0.0562,0.0569,0.0565,0.0565,0.0565,0,0.0235,0.0239,0.0221,0.019,0.0184,0.0162,0.0118,0.0119,0.0127,0.0131,0.0141,0.0196,0.0224,0.028,0.0381,0.0371,0.043,0.0508,0.0513,0.0574,0.0643,0.0577,0.0572,0.0568,0.0568,0.0568,0.0568,0,0.0162,0.015,0.0128,0.0124,0.0119,0.0071,0.0044,0.0038,0.0018,0.0029,0.0029,0.0084,0.0119,0.022,0.0348,0.0364,0.0488,0.0545,0.0614,0.0615,0.0624,0.0626,0.0598,0.0598,0.0598,0.0598,0.0598,0,0.0113,0.0068,0.0069,0.0052,-0.0041,-0.0023,-0.0116,-0.0127,-0.014,-0.0157,-0.0073,-0.0057,0.0113,0.0214,0.032,0.046,0.0459,0.058,0.0624,0.0585,0.0584,0.0631,0.0634,0.0598,0.0598,0.0598,0.0598,0,0.0046,0.0063,0.0009,-0.0034,-0.0066,-0.0142,-0.0225,-0.0283,-0.0277,-0.0283,-0.0277,-0.0165,-0.003,0.0138,0.0318,0.0425,0.0564,0.0604,0.0518,0.0553,0.065,0.0648,0.068,0.0681,0.0682,0.0683,0.0684,0,0.0014,-0.0,-0.0058,-0.0123,-0.016,-0.0268,-0.0341,-0.0365,-0.0403,-0.0344,-0.0344,-0.0216,-0.012,0.0142,0.0352,0.054,0.0559,0.061,0.0645,0.062,0.0661,0.0657,0.0655,0.0597,0.0597,0.0596,0.0596,0,-0.0054,-0.0058,-0.0094,-0.0218,-0.0314,-0.0402,-0.0504,-0.0536,-0.0524,-0.0507,-0.0446,-0.0356,-0.0096,0.0127,0.0385,0.049,0.0588,0.0617,0.0628,0.0594,0.0547,0.0585,0.0584,0.0596,0.0596,0.0596,0.0596,0.0596,-0.013,-0.0168,-0.0206,-0.0329,-0.0428,-0.0517,-0.0584,-0.0631,-0.0654,-0.0589,-0.051,-0.0357,-0.0124,0.0241,0.0425,0.0599,0.0606,0.066,0.0658,0.0657,0.0658,0.0617,0.0675,0.0675,0.0676,0.0676,0.0676,0,-0.0218,-0.0233,-0.0333,-0.0448,-0.0556,-0.059,-0.0667,-0.0692,-0.0687,-0.0606,-0.0528,-0.0282,-0.0032,0.0201,0.0484,0.0663,0.0645,0.0678,0.0631,0.0629,0.0629,0.0627,0.0637,0.0638,0.0638,0.0639,0,0,-0.026,-0.0329,-0.0349,-0.0521,-0.0617,-0.0715,-0.0745,-0.0736,-0.0686,-0.0598,-0.0491,-0.0324,-0.0032,0.0169,0.038,0.0523,0.0529,0.0523,0.0533,0.045,0.0447,0.0593,0.0587,0,0,0,0,0]}],[{"header":{"parameterUnit":"m.s-1","parameterCategory":2,"la1":30.2991,"la2":30.254,"lo1":-89.0895,"lo2":-89.0444,"dy":0.0017,"dx":0.0017,"nx":28,"ny":28,"refTime":"2024-04-30T09:00:00:Z","depth":"4","parameterNumber":2,"parameterNumberName":"U-component_of_CURRENTS"},"data":[0,0,0,0,0,0,0,0,0,0,0,0,0,0,0,0,0,0,0,0,0,0,0,0,0,0,0,0,0,0,0,0,0,0,0,0,0,0,0,0,0,0,0,0,0,0,0,0,0,0,0,0,0,0,0,0,0,0,-0.105,-0.1051,0,-0.1062,-0.1061,-0.1061,-0.1099,-0.1101,-0.1102,-0.1103,-0.1125,-0.1124,-0.1123,0,0,0,0,0,0,0,0,0,0,0,0,0,-0.0865,-0.0869,-0.105,-0.1051,-0.1052,-0.1062,-0.1061,-0.1061,-0.1099,-0.1101,-0.1102,-0.1104,-0.1125,-0.1124,-0.1123,0,0,0,0,0,0,0,0,0,0,0,0,0,-0.0913,-0.087,-0.105,-0.1076,-0.1078,-0.1062,-0.1061,-0.1061,-0.1099,-0.1101,-0.1103,-0.1105,-0.1125,-0.1124,-0.1123,-0.1076,0,0,-0.112,-0.1119,0,0,0,0,0,0,0,0,-0.0911,-0.092,-0.1071,-0.1074,-0.1077,-0.1086,-0.1004,-0.1068,-0.1098,-0.1086,-0.1103,-0.1106,-0.1114,-0.1114,-0.1104,-0.1077,-0.1078,-0.112,-0.1119,-0.1119,-0.1118,0,0,0,0,0,0,0,-0.0908,-0.0918,-0.105,-0.1072,-0.1076,-0.1019,-0.103,-0.1015,-0.1085,-0.1087,-0.1091,-0.11,-0.1116,-0.1105,-0.1105,-0.1079,-0.112,-0.1119,-0.1118,-0.1118,-0.1074,-0.1074,0,0,0,0,0,0,-0.0926,-0.0917,-0.1049,-0.105,-0.1003,-0.1022,-0.1033,-0.1077,-0.1085,-0.1089,-0.1098,-0.1102,-0.1106,-0.1106,-0.1106,-0.1155,-0.1119,-0.1118,-0.1117,-0.1075,-0.1074,-0.1073,0,0,0,0,0,0,-0.0922,-0.0939,-0.1049,-0.0985,-0.0996,-0.1026,-0.1072,-0.1076,-0.1087,-0.1094,-0.1098,-0.1109,-0.1108,-0.1108,-0.1099,-0.1152,-0.1117,-0.1116,-0.1075,-0.1075,-0.1074,-0.1185,0,0,0,0,0,0,-0.0917,-0.0938,-0.0969,-0.0988,-0.1001,-0.1053,-0.1071,-0.1075,-0.1091,-0.1096,-0.1104,-0.1107,-0.1109,-0.1101,-0.1098,-0.115,-0.1116,-0.1076,-0.1075,-0.1074,-0.1182,-0.1189,-0.1194,0,0,0,0,0,-0.0911,-0.0949,-0.0972,-0.0987,-0.1047,-0.1053,-0.1053,-0.1075,-0.109,-0.1092,-0.1092,-0.1108,-0.1093,-0.1099,-0.1096,-0.115,-0.1077,-0.1075,-0.1074,-0.118,-0.1187,-0.1194,0,0,0,0,0,0,-0.0865,-0.0957,-0.0983,-0.1043,-0.1054,-0.1062,-0.107,-0.1078,-0.1077,-0.1087,-0.1091,-0.1092,-0.1105,-0.1088,-0.1094,-0.1126,-0.1091,-0.1089,-0.1172,-0.1179,-0.1185,-0.1236,-0.1115,0,0,0,0,0,-0.0876,-0.0945,-0.0986,-0.1029,-0.1043,-0.1055,-0.1061,-0.1073,-0.1077,-0.108,-0.1083,-0.1083,-0.109,-0.1105,-0.1088,-0.1102,-0.11,-0.1132,-0.1137,-0.1143,-0.1177,-0.1176,-0.1187,-0.1069,-0.1069,-0.107,0,0,-0.0864,-0.0927,-0.0961,-0.1026,-0.1039,-0.1054,-0.1063,-0.1077,-0.1095,-0.108,-0.1097,-0.1092,-0.1088,-0.1109,-0.1116,-0.1114,-0.1174,-0.1141,-0.1147,-0.1179,-0.1177,-0.1189,-0.12,-0.1069,-0.1069,-0.1069,0,0,-0.0867,-0.0936,-0.0988,-0.1004,-0.1043,-0.1053,-0.1063,-0.1076,-0.1096,-0.1091,-0.1104,-0.1139,-0.1108,-0.116,-0.1172,-0.1192,-0.1188,-0.1173,-0.1274,-0.1272,-0.1284,-0.1293,-0.1317,-0.1328,-0.1197,-0.1197,-0.1197,0,-0.0842,-0.093,-0.0987,-0.1022,-0.1043,-0.1059,-0.108,-0.1092,-0.1097,-0.1131,-0.1104,-0.1138,-0.1147,-0.1233,-0.1257,-0.122,-0.1206,-0.126,-0.1286,-0.1295,-0.1304,-0.1325,-0.1336,-0.1202,-0.1202,-0.1201,-0.1201,0,-0.088,-0.0936,-0.0956,-0.1032,-0.1052,-0.1067,-0.1102,-0.1125,-0.114,-0.1162,-0.122,-0.1227,-0.1266,-0.1279,-0.1285,-0.1371,-0.1338,-0.1282,-0.1285,-0.1324,-0.1342,-0.1351,-0.121,-0.1208,-0.1206,-0.1205,0,0,-0.0853,-0.0966,-0.0973,-0.1009,-0.1063,-0.108,-0.1131,-0.1192,-0.1239,-0.1255,-0.1317,-0.1381,-0.1405,-0.1422,-0.1444,-0.148,-0.1548,-0.1425,-0.1423,-0.148,-0.1556,-0.1413,-0.1409,-0.1483,-0.1484,-0.1486,-0.1551,0,-0.0858,-0.0937,-0.0997,-0.104,-0.1072,-0.1123,-0.1166,-0.1225,-0.1262,-0.1313,-0.1388,-0.1422,-0.1451,-0.1475,-0.1529,-0.1524,-0.1574,-0.1537,-0.1484,-0.1484,-0.1377,-0.1416,-0.1492,-0.1558,-0.156,-0.1562,-0.1563,0,-0.0873,-0.0931,-0.0993,-0.1074,-0.1094,-0.1121,-0.1218,-0.1258,-0.1355,-0.1383,-0.1471,-0.1489,-0.1608,-0.1565,-0.1658,-0.1622,-0.162,-0.1613,-0.1613,-0.1454,-0.1357,-0.1502,-0.1579,-0.1578,-0.1577,-0.1576,-0.1575,0,-0.0839,-0.0924,-0.0985,-0.1006,-0.1096,-0.1145,-0.1193,-0.1288,-0.1339,-0.1431,-0.1459,-0.157,-0.1611,-0.1639,-0.1671,-0.1651,-0.1715,-0.1667,-0.1555,-0.1546,-0.1611,-0.1599,-0.172,-0.172,-0.172,-0.172,-0.172,0,-0.0827,-0.0866,-0.0974,-0.1,-0.1061,-0.1131,-0.1205,-0.1268,-0.1357,-0.1404,-0.1497,-0.1537,-0.1621,-0.1666,-0.1682,-0.1657,-0.1728,-0.1598,-0.1553,-0.1653,-0.1645,-0.1619,-0.1606,-0.1722,-0.1722,-0.1721,-0.1721,0,-0.0775,-0.0849,-0.0914,-0.102,-0.1049,-0.1093,-0.1196,-0.1241,-0.1331,-0.139,-0.1416,-0.153,-0.157,-0.1641,-0.1679,-0.1651,-0.1639,-0.1609,-0.175,-0.1707,-0.1478,-0.147,-0.1497,-0.1492,-0.1488,-0.1485,-0.1482,0,-0.0753,-0.079,-0.0913,-0.0945,-0.0992,-0.1065,-0.1107,-0.1213,-0.1248,-0.1366,-0.1373,-0.1458,-0.1513,-0.1494,-0.1561,-0.1579,-0.1556,-0.156,-0.1513,-0.1502,-0.1456,-0.1454,-0.1451,-0.1476,-0.1475,-0.1474,-0.1473,0,-0.0704,-0.0767,-0.0828,-0.0893,-0.0943,-0.0992,-0.1052,-0.1069,-0.1172,-0.1272,-0.129,-0.1318,-0.1361,-0.1404,-0.1426,-0.1436,-0.1558,-0.1519,-0.1527,-0.1483,-0.1477,-0.1435,-0.1437,-0.146,-0.1462,-0.1463,-0.1464,0,-0.0664,-0.0695,-0.0782,-0.0829,-0.088,-0.0884,-0.0938,-0.0968,-0.102,-0.114,-0.1142,-0.1234,-0.1331,-0.1329,-0.1349,-0.1343,-0.1322,-0.1287,-0.1307,-0.1322,-0.1231,-0.1196,-0.1074,0,0,0,0,0,-0.0617,-0.0653,-0.07,-0.0751,-0.0793,-0.0814,-0.088,-0.0932,-0.103,-0.1002,-0.1066,-0.1091,-0.112,-0.1185,-0.1143,-0.1265,-0.1325,-0.1211,-0.1294,-0.1387,-0.1402,-0.1309,0,0,0,0,0,0,-0.0595,-0.0643,-0.068,-0.0661,-0.0669,-0.0696,-0.0728,-0.0795,-0.0789,-0.0899,-0.0927,-0.1014,-0.1069,-0.1124,-0.1119,-0.1134,-0.116,-0.1275,-0.1272,-0.1378,-0.1392,-0.1404,-0.1314,0,0,0,0,0]},{"header":{"parameterUnit":"m.s-1","parameterCategory":2,"la1":30.2991,"la2":30.254,"lo1":-89.0895,"lo2":-89.0444,"dy":0.0017,"dx":0.0017,"nx":28,"ny":28,"refTime":"2024-04-30T09:00:00:Z","depth":"4","parameterNumber":3,"parameterNumberName":"V-component_of_CURRENTS"},"data":[0,0,0,0,0,0,0,0,0,0,0,0,0,0,0,0,0,0,0,0,0,0,0,0,0,0,0,0,0,0,0,0,0,0,0,0,0,0,0,0,0,0,0,0,0,0,0,0,0,0,0,0,0,0,0,0,0,0,0.0466,0.0467,0,0.0532,0.0532,0.0533,0.0548,0.0548,0.0548,0.0547,0.0556,0.0557,0.0557,0,0,0,0,0,0,0,0,0,0,0,0,0,0.0359,0.0361,0.0466,0.0467,0.0468,0.0532,0.0532,0.0533,0.0548,0.0548,0.0548,0.0547,0.0556,0.0557,0.0558,0,0,0,0,0,0,0,0,0,0,0,0,0,0.0412,0.0362,0.0466,0.0484,0.0486,0.0531,0.0532,0.0533,0.0548,0.0548,0.0547,0.0547,0.0556,0.0557,0.0558,0.0572,0,0,0.056,0.056,0,0,0,0,0,0,0,0,0.0409,0.0416,0.048,0.0483,0.0486,0.0533,0.0498,0.0544,0.0549,0.0523,0.0547,0.0547,0.0545,0.0546,0.0558,0.0572,0.0573,0.056,0.0561,0.0561,0.0561,0,0,0,0,0,0,0,0.0405,0.0413,0.049,0.0481,0.0485,0.0491,0.0498,0.0507,0.0533,0.0525,0.0527,0.0537,0.0545,0.0558,0.0559,0.0573,0.056,0.0561,0.0561,0.0562,0.056,0.0559,0,0,0,0,0,0,0.0401,0.041,0.0488,0.0492,0.0447,0.0494,0.0501,0.0517,0.0535,0.0538,0.0537,0.0538,0.0556,0.0558,0.0559,0.0551,0.0561,0.0562,0.0562,0.056,0.0559,0.0559,0,0,0,0,0,0,0.0398,0.0407,0.0486,0.0453,0.0464,0.0496,0.0514,0.0518,0.0534,0.0545,0.0546,0.0549,0.0556,0.0558,0.0556,0.0553,0.0562,0.0563,0.0561,0.056,0.0559,0.0552,0,0,0,0,0,0,0.0395,0.0406,0.0419,0.0453,0.0466,0.0503,0.0514,0.052,0.0542,0.0542,0.0555,0.0555,0.0556,0.0555,0.0557,0.0554,0.0563,0.0561,0.056,0.0559,0.0553,0.0551,0.055,0,0,0,0,0,0.0391,0.041,0.042,0.0429,0.0482,0.0503,0.051,0.053,0.0543,0.0544,0.0549,0.0555,0.055,0.0555,0.0558,0.0555,0.0562,0.0561,0.056,0.0554,0.0552,0.055,0,0,0,0,0,0,0.0376,0.0414,0.0426,0.0457,0.0474,0.0506,0.0519,0.0534,0.0544,0.0544,0.0553,0.0553,0.0544,0.0552,0.0558,0.0549,0.0555,0.0554,0.055,0.0548,0.0546,0.0549,0.0564,0,0,0,0,0,0.0378,0.0398,0.043,0.0453,0.0463,0.0493,0.0508,0.0519,0.0533,0.0538,0.0542,0.0545,0.0543,0.0548,0.0541,0.0548,0.0551,0.0545,0.0543,0.0542,0.0545,0.0538,0.0537,0.0555,0.0555,0.0555,0,0,0.0381,0.0404,0.0417,0.0451,0.047,0.0465,0.05,0.0519,0.0509,0.0536,0.0523,0.0536,0.054,0.0534,0.0533,0.0543,0.0538,0.054,0.0539,0.0543,0.0537,0.0535,0.0534,0.0554,0.0554,0.0554,0,0,0.0376,0.0413,0.0417,0.0425,0.0448,0.0459,0.0463,0.0488,0.0495,0.0487,0.0502,0.0522,0.0507,0.0526,0.053,0.0521,0.0521,0.0509,0.0516,0.0509,0.0508,0.0507,0.0509,0.0508,0.0518,0.0518,0.0518,0,0.0374,0.0383,0.0421,0.0413,0.0412,0.045,0.0434,0.0446,0.0462,0.0471,0.047,0.0485,0.0504,0.0517,0.0518,0.0519,0.051,0.0525,0.0508,0.0507,0.0506,0.0509,0.0508,0.0518,0.0518,0.0518,0.0518,0,0.0358,0.036,0.0364,0.0359,0.0362,0.0361,0.0373,0.0379,0.039,0.0406,0.0417,0.0448,0.0462,0.0475,0.0497,0.0508,0.0502,0.0499,0.0516,0.0504,0.0507,0.0506,0.0517,0.0517,0.0517,0.0518,0,0,0.0356,0.0351,0.035,0.033,0.0331,0.033,0.0318,0.0326,0.0322,0.0347,0.034,0.0388,0.0428,0.0437,0.0477,0.0497,0.0503,0.05,0.05,0.0507,0.0484,0.0475,0.0474,0.0487,0.0486,0.0486,0.049,0,0.0326,0.0296,0.0301,0.0258,0.0239,0.0257,0.0239,0.0252,0.0264,0.0265,0.033,0.0331,0.0403,0.0413,0.0449,0.0475,0.0499,0.0502,0.0491,0.0491,0.0488,0.0472,0.0485,0.049,0.049,0.049,0.0489,0,0.0297,0.0279,0.0237,0.0202,0.0197,0.0172,0.0159,0.0149,0.0174,0.0186,0.0227,0.026,0.0319,0.0357,0.0425,0.0415,0.0455,0.0484,0.0484,0.0478,0.048,0.0503,0.0488,0.0488,0.0488,0.0488,0.0489,0,0.0267,0.023,0.0195,0.0181,0.0151,0.0136,0.012,0.0132,0.0119,0.0137,0.0126,0.0196,0.0209,0.0273,0.037,0.0379,0.042,0.0432,0.0468,0.0468,0.048,0.0481,0.047,0.047,0.047,0.0469,0.0469,0,0.0226,0.0196,0.0177,0.0152,0.0101,0.0097,0.0055,0.0056,0.0047,0.0022,0.0088,0.0079,0.0183,0.023,0.0323,0.0395,0.0385,0.0466,0.0465,0.0476,0.0477,0.0479,0.048,0.047,0.047,0.047,0.047,0,0.0192,0.0185,0.0137,0.0101,0.0083,0.0047,-0.0004,-0.0033,-0.0028,-0.0068,-0.0069,-0.0024,0.0036,0.0151,0.0241,0.032,0.0397,0.0428,0.0435,0.0434,0.0461,0.0462,0.0451,0.045,0.045,0.045,0.045,0,0.017,0.0147,0.0096,0.0061,0.0038,-0.0013,-0.0054,-0.007,-0.0104,-0.0127,-0.0155,-0.0115,-0.0064,0.0054,0.0185,0.0341,0.0379,0.0415,0.0452,0.0458,0.0458,0.0459,0.046,0.0449,0.0449,0.0449,0.0449,0,0.0122,0.0115,0.0075,0.0008,-0.0044,-0.0106,-0.0164,-0.0198,-0.0221,-0.0219,-0.0237,-0.0167,-0.0105,0.0025,0.0148,0.027,0.0386,0.0413,0.0414,0.045,0.0456,0.0456,0.0458,0.0448,0.0448,0.0448,0.0448,0,0.0091,0.0055,0.0012,-0.0054,-0.0115,-0.0187,-0.0213,-0.0259,-0.029,-0.0303,-0.0312,-0.0226,-0.0174,-0.0013,0.0101,0.0217,0.0255,0.0299,0.0308,0.0311,0.0283,0.0271,0.0199,0,0,0,0,0,0.0055,0.0008,-0.0052,-0.0127,-0.0184,-0.0221,-0.0283,-0.0298,-0.0321,-0.0346,-0.0328,-0.0263,-0.0114,-0.0049,0.0062,0.0111,0.0284,0.0246,0.0342,0.0442,0.0443,0.0436,0,0,0,0,0,0,0.0025,-0.0027,-0.0064,-0.0168,-0.0225,-0.0298,-0.0339,-0.0356,-0.0359,-0.036,-0.0281,-0.0236,-0.0084,-0.0179,0.0062,0.0097,0.0173,0.0323,0.0325,0.0441,0.0442,0.0443,0.0437,0,0,0,0,0]}]]